Time,TemperatureF,DewpointF,PressureIn,WindDirection,WindDirectionDegrees,WindSpeedMPH,WindSpeedGustMPH,Humidity,HourlyPrecipIn,Conditions,Clouds,dailyrainin,SoftwareType,DateUTC
2013-03-19 01:02:00,18.0,15.0,29.91,SSE,151,0.0,0.0,87,0.00,,,0.01,,2013-03-19 07:02:00,
2013-03-19 01:12:00,18.0,15.0,29.91,SSE,151,0.0,0.0,87,0.00,,,0.01,,2013-03-19 07:12:00,
2013-03-19 01:21:00,18.0,15.0,29.91,SSE,152,0.0,3.0,86,0.00,,,0.01,,2013-03-19 07:21:00,
2013-03-19 01:30:00,17.0,14.0,29.92,SSE,151,1.0,3.0,88,0.00,,,0.01,,2013-03-19 07:30:00,
2013-03-19 01:32:00,18.0,15.0,29.91,SSE,151,1.0,3.0,88,0.00,,,0.01,,2013-03-19 07:32:00,
2013-03-19 01:42:00,18.0,15.0,29.91,SSE,151,1.0,3.0,88,0.00,,,0.01,,2013-03-19 07:42:00,
2013-03-19 01:52:00,17.0,14.0,29.92,SSE,151,1.0,3.0,88,0.00,,,0.01,,2013-03-19 07:52:00,
2013-03-19 02:02:00,17.0,14.0,29.92,SSE,151,1.0,3.0,88,0.00,,,0.01,,2013-03-19 08:02:00,
2013-03-19 02:12:00,17.0,14.0,29.92,SSE,151,1.0,3.0,88,0.00,,,0.01,,2013-03-19 08:12:00,
2013-03-19 02:22:00,17.0,14.0,29.92,SSE,151,1.0,3.0,88,0.00,,,0.01,,2013-03-19 08:22:00,
2013-03-19 04:33:00,20.0,16.0,30.03,North,360,9.0,15.0,84,0.00,,,0.01,,2013-03-19 10:33:00,
2013-03-19 04:42:00,20.0,16.0,30.03,North,360,9.0,15.0,84,0.00,,,0.01,,2013-03-19 10:42:00,
2013-03-19 04:53:00,18.0,14.0,30.05,NNW,333,13.0,19.0,83,0.00,,,0.01,,2013-03-19 10:53:00,
2013-03-19 05:00:00,16.0,12.0,30.07,NNW,348,5.0,13.0,84,0.00,,,0.01,,2013-03-19 11:00:00,
2013-03-19 05:02:00,16.0,12.0,30.06,NNE,24,7.0,13.0,83,0.00,,,0.01,,2013-03-19 11:02:00,
2013-03-19 05:12:00,16.0,12.0,30.06,NNE,24,7.0,13.0,83,0.00,,,0.01,,2013-03-19 11:12:00,
2013-03-19 05:22:00,16.0,12.0,30.07,NNW,348,5.0,13.0,84,0.00,,,0.01,,2013-03-19 11:22:00,
2013-03-19 05:32:00,16.0,12.0,30.07,NNW,348,5.0,13.0,84,0.00,,,0.01,,2013-03-19 11:32:00,
2013-03-19 05:42:00,16.0,12.0,30.07,NNW,348,5.0,13.0,84,0.00,,,0.01,,2013-03-19 11:42:00,
2013-03-19 05:52:00,16.0,12.0,30.07,NNW,348,5.0,13.0,84,0.00,,,0.01,,2013-03-19 11:52:00,
2013-03-19 08:02:00,11.0,6.0,30.18,North,5,5.0,10.0,81,0.00,,,0.01,,2013-03-19 14:02:00,
2013-03-19 08:12:00,11.0,6.0,30.18,North,5,5.0,10.0,81,0.00,,,0.01,,2013-03-19 14:12:00,
2013-03-19 08:22:00,11.0,6.0,30.20,NNE,15,4.0,8.0,80,0.00,,,0.01,,2013-03-19 14:22:00,
2013-03-19 08:32:00,11.0,6.0,30.20,North,11,4.0,8.0,80,0.00,,,0.01,,2013-03-19 14:32:00,
2013-03-19 08:42:00,11.0,6.0,30.20,North,11,4.0,8.0,80,0.00,,,0.01,,2013-03-19 14:42:00,
2013-03-19 08:52:00,11.0,6.0,30.21,NNE,26,5.0,10.0,79,0.00,,,0.01,,2013-03-19 14:52:00,
2013-03-19 09:02:00,11.0,6.0,30.22,NNE,19,4.0,7.0,80,0.00,,,0.01,,2013-03-19 15:02:00,
2013-03-19 09:12:00,11.0,6.0,30.22,NNE,19,4.0,7.0,80,0.00,,,0.01,,2013-03-19 15:12:00,
2013-03-19 09:22:00,11.0,6.0,30.22,NNE,19,4.0,7.0,80,0.00,,,0.01,,2013-03-19 15:22:00,
2013-03-19 09:33:00,11.0,6.0,30.22,NNE,19,4.0,7.0,80,0.00,,,0.01,,2013-03-19 15:33:00,
2013-03-19 09:43:00,11.0,6.0,30.22,NNE,19,4.0,7.0,80,0.00,,,0.01,,2013-03-19 15:43:00,
2013-03-19 11:53:00,17.0,10.0,30.29,NW,313,6.0,11.0,72,0.00,,,0.01,,2013-03-19 17:53:00,
2013-03-19 12:03:00,17.0,9.0,30.30,NW,316,5.0,14.0,70,0.00,,,0.01,,2013-03-19 18:03:00,
2013-03-19 12:13:00,17.0,9.0,30.30,NW,316,5.0,14.0,70,0.00,,,0.01,,2013-03-19 18:13:00,
2013-03-19 12:23:00,18.0,9.0,30.29,NW,325,9.0,16.0,68,0.00,,,0.01,,2013-03-19 18:23:00,
2013-03-19 12:33:00,19.0,10.0,30.29,NW,321,8.0,16.0,67,0.00,,,0.01,,2013-03-19 18:33:00,
2013-03-19 12:43:00,19.0,10.0,30.29,NW,321,8.0,16.0,67,0.00,,,0.01,,2013-03-19 18:43:00,
2013-03-19 12:53:00,19.0,10.0,30.29,NW,321,8.0,16.0,67,0.00,,,0.01,,2013-03-19 18:53:00,
2013-03-19 13:02:00,19.0,10.0,30.29,NW,321,8.0,16.0,67,0.00,,,0.01,,2013-03-19 19:02:00,
2013-03-19 13:12:00,19.0,10.0,30.29,NW,321,8.0,16.0,67,0.00,,,0.01,,2013-03-19 19:12:00,
2013-03-19 15:23:00,23.0,11.0,30.32,NNW,342,6.0,15.0,59,0.00,,,0.01,,2013-03-19 21:23:00,
2013-03-19 15:34:00,23.0,11.0,30.32,NNW,336,9.0,15.0,59,0.00,,,0.01,,2013-03-19 21:34:00,
2013-03-19 15:43:00,23.0,11.0,30.32,NNW,336,9.0,15.0,59,0.00,,,0.01,,2013-03-19 21:43:00,
2013-03-19 15:53:00,23.0,10.0,30.32,WNW,302,8.0,12.0,57,0.00,,,0.01,,2013-03-19 21:53:00,
2013-03-19 16:03:00,23.0,10.0,30.32,North,355,7.0,11.0,57,0.00,,,0.01,,2013-03-19 22:03:00,
2013-03-19 16:12:00,23.0,10.0,30.32,North,355,7.0,11.0,57,0.00,,,0.01,,2013-03-19 22:12:00,
2013-03-19 16:23:00,23.0,10.0,30.32,North,355,7.0,11.0,57,0.00,,,0.01,,2013-03-19 22:23:00,
2013-03-19 16:33:00,23.0,10.0,30.32,North,355,7.0,11.0,57,0.00,,,0.01,,2013-03-19 22:33:00,
2013-03-19 16:43:00,23.0,10.0,30.32,North,355,7.0,11.0,57,0.00,,,0.01,,2013-03-19 22:43:00,
2013-03-19 19:03:00,25.0,9.0,30.32,NNW,339,0.0,4.0,50,0.00,,,0.00,,2013-03-20 01:03:00,
2013-03-19 19:12:00,25.0,9.0,30.32,NNW,339,0.0,4.0,50,0.00,,,0.00,,2013-03-20 01:12:00,
2013-03-19 19:22:00,24.0,9.0,30.32,NNW,339,0.0,1.0,52,0.00,,,0.00,,2013-03-20 01:22:00,
2013-03-19 19:31:00,23.0,10.0,30.33,NNW,339,0.0,0.0,57,0.00,,,0.00,,2013-03-20 01:31:00,
2013-03-19 19:32:00,24.0,10.0,30.32,NNW,339,0.0,0.0,55,0.00,,,0.00,,2013-03-20 01:32:00,
2013-03-19 19:42:00,24.0,10.0,30.32,NNW,339,0.0,0.0,55,0.00,,,0.00,,2013-03-20 01:42:00,
2013-03-19 19:53:00,23.0,10.0,30.33,NNW,339,0.0,0.0,57,0.00,,,0.00,,2013-03-20 01:53:00,
2013-03-19 20:02:00,23.0,10.0,30.33,NNW,339,0.0,0.0,57,0.00,,,0.00,,2013-03-20 02:02:00,
2013-03-19 20:12:00,23.0,10.0,30.33,NNW,339,0.0,0.0,57,0.00,,,0.00,,2013-03-20 02:12:00,
2013-03-19 20:22:00,23.0,10.0,30.33,NNW,339,0.0,0.0,57,0.00,,,0.00,,2013-03-20 02:22:00,
2013-03-19 22:32:00,16.0,9.0,30.32,NNW,339,1.0,3.0,74,0.00,,,0.00,,2013-03-20 04:32:00,
2013-03-19 22:43:00,16.0,9.0,30.32,NNW,339,1.0,3.0,74,0.00,,,0.00,,2013-03-20 04:43:00,
2013-03-19 22:53:00,15.0,9.0,30.32,NNW,339,1.0,2.0,76,0.00,,,0.00,,2013-03-20 04:53:00,
2013-03-19 23:01:00,14.0,8.0,30.32,NNW,339,1.0,3.0,78,0.00,,,0.00,,2013-03-20 05:01:00,
2013-03-19 23:02:00,14.0,8.0,30.32,NNW,339,0.0,0.0,78,0.00,,,0.00,,2013-03-20 05:02:00,
2013-03-19 23:12:00,14.0,8.0,30.32,NNW,339,1.0,3.0,78,0.00,,,0.00,,2013-03-20 05:12:00,
2013-03-19 23:22:00,14.0,8.0,30.32,NNW,339,1.0,3.0,78,0.00,,,0.00,,2013-03-20 05:22:00,
2013-03-19 23:32:00,14.0,8.0,30.32,NNW,339,1.0,3.0,78,0.00,,,0.00,,2013-03-20 05:32:00,
2013-03-19 23:42:00,14.0,8.0,30.32,NNW,339,1.0,3.0,78,0.00,,,0.00,,2013-03-20 05:42:00,
2013-03-19 23:53:00,14.0,8.0,30.32,NNW,339,1.0,3.0,78,0.00,,,0.00,,2013-03-20 05:53:00,